Tracking 28081 objects as of 26-Sep-2023
HD Live streaming from Space Station
objects crossing your sky now

STARLINK-4038

Track STARLINK-4038 now!
10-day predictions
STARLINK-4038 is classified as:


NORAD ID: 53150
Int'l Code: 2022-083U
Perigee: 545.9 km
Apogee: 547.8 km
Inclination: 53.2 °
Period: 95.4 minutes
Semi major axis: 6917 km
RCS: Unknown
Launch date: July 17, 2022
Source: United States (US)
Launch site: AIR FORCE EASTERN TEST RANGE (AFETR)
Your satellite tracking list
Your tracking list is empty




NASA's NSSDC Master Catalog

Two Line Element Set (TLE):
1 53150U 22083U   23268.58357501  .00007127  00000-0  46531-3 0  9993
2 53150  53.2154 226.8992 0001418  94.1383 265.9771 15.08849488 66707
Source of the keplerian elements: AFSPC